• In Hungary
  • List of Countries
  • For 7 days
  • Water Temperature
  • Satellite Maps
  • Weather Map
  • News
  • Weather Widgets
  • user-avatar
    Login

    Hourly Weather San Luis

    Today, 24 November, Friday

    Time Temperature Precipitation Wind Pressure Humidity
    00:00 +17°C° 0.1 mm 9 mps 698 mmHg 30%
    01:00 +16°C° 0.1 mm 9 mps 698 mmHg 32%
    02:00 +15°C° 0.1 mm 8 mps 698 mmHg 35%
    03:00 +15°C° 0 mm 8 mps 698 mmHg 36%
    04:00 +13°C° 0 mm 8 mps 698 mmHg 38%
    05:00 +13°C° 0 mm 8 mps 698 mmHg 39%
    06:00 +15°C° 0 mm 8 mps 699 mmHg 36%
    07:00 +17°C° 0 mm 8 mps 699 mmHg 34%
    08:00 +20°C° 0 mm 8 mps 700 mmHg 31%
    09:00 +22°C° 0 mm 7 mps 700 mmHg 28%
    10:00 +24°C° 0 mm 7 mps 700 mmHg 25%
    11:00 +27°C° 0 mm 7 mps 700 mmHg 21%
    12:00 +28°C° 0 mm 6 mps 700 mmHg 21%
    13:00 +29°C° 0 mm 6 mps 699 mmHg 20%
    14:00 +32°C° 0 mm 6 mps 699 mmHg 19%
    15:00 +30°C° 0 mm 6 mps 698 mmHg 20%
    16:00 +29°C° 0 mm 7 mps 697 mmHg 21%
    17:00 +29°C° 0 mm 8 mps 697 mmHg 23%
    18:00 +26°C° 0.1 mm 7 mps 697 mmHg 27%
    19:00 +23°C° 0.1 mm 7 mps 697 mmHg 31%
    20:00 +21°C° 0.1 mm 7 mps 697 mmHg 35%
    21:00 +21°C° 0 mm 6 mps 698 mmHg 36%
    22:00 +20°C° 0 mm 6 mps 698 mmHg 37%
    23:00 +20°C° 0 mm 5 mps 699 mmHg 37%

    Tomorrow, 25 November, Saturday

    Time Temperature Precipitation Wind Pressure Humidity
    00:00 +19°C° 0 mm 5 mps 698 mmHg 38%
    01:00 +19°C° 0 mm 4 mps 698 mmHg 38%
    02:00 +19°C° 0 mm 4 mps 698 mmHg 39%
    03:00 +18°C° 0 mm 3 mps 698 mmHg 41%
    04:00 +17°C° 0 mm 3 mps 698 mmHg 42%
    05:00 +17°C° 0 mm 3 mps 698 mmHg 44%
    06:00 +19°C° 0 mm 2 mps 699 mmHg 38%
    07:00 +23°C° 0 mm 2 mps 700 mmHg 31%
    08:00 +26°C° 0 mm 2 mps 700 mmHg 25%
    09:00 +27°C° 0 mm 2 mps 701 mmHg 22%
    10:00 +29°C° 0 mm 2 mps 701 mmHg 20%
    11:00 +30°C° 0 mm 2 mps 701 mmHg 17%
    12:00 +31°C° 0 mm 2 mps 700 mmHg 16%
    13:00 +32°C° 0 mm 2 mps 700 mmHg 15%
    14:00 +34°C° 0 mm 2 mps 699 mmHg 13%
    15:00 +34°C° 0 mm 2 mps 699 mmHg 13%
    16:00 +34°C° 0 mm 2 mps 698 mmHg 13%
    17:00 +34°C° 0 mm 2 mps 697 mmHg 12%
    18:00 +31°C° 0 mm 3 mps 697 mmHg 15%
    19:00 +28°C° 0 mm 3 mps 697 mmHg 18%
    20:00 +26°C° 0 mm 4 mps 697 mmHg 21%
    21:00 +25°C° 0 mm 4 mps 697 mmHg 23%
    22:00 +24°C° 0 mm 3 mps 698 mmHg 26%
    23:00 +24°C° 0 mm 3 mps 698 mmHg 28%

    Day after tomorrow, 26 November, Sunday

    Time Temperature Precipitation Wind Pressure Humidity
    00:00 +23°C° 0 mm 4 mps 697 mmHg 29%
    01:00 +22°C° 0 mm 5 mps 697 mmHg 30%
    02:00 +22°C° 0 mm 6 mps 696 mmHg 30%
    03:00 +22°C° 0 mm 7 mps 696 mmHg 33%
    04:00 +22°C° 0 mm 8 mps 696 mmHg 36%
    05:00 +22°C° 0 mm 9 mps 696 mmHg 39%
    06:00 +24°C° 0 mm 9 mps 696 mmHg 37%
    07:00 +27°C° 0 mm 9 mps 696 mmHg 35%
    08:00 +28°C° 0 mm 10 mps 696 mmHg 33%
    09:00 +31°C° 0 mm 9 mps 696 mmHg 29%
    10:00 +33°C° 0 mm 8 mps 696 mmHg 25%
    11:00 +34°C° 0 mm 8 mps 696 mmHg 21%
    12:00 +35°C° 0 mm 7 mps 695 mmHg 19%
    13:00 +36°C° 0 mm 6 mps 695 mmHg 18%
    14:00 +36°C° 0 mm 5 mps 694 mmHg 16%
    15:00 +36°C° 0 mm 5 mps 693 mmHg 15%
    16:00 +36°C° 0 mm 4 mps 693 mmHg 15%
    17:00 +36°C° 0 mm 3 mps 692 mmHg 14%
    18:00 +34°C° 0 mm 3 mps 692 mmHg 16%
    19:00 +30°C° 0 mm 3 mps 693 mmHg 19%
    20:00 +28°C° 0 mm 3 mps 693 mmHg 21%
    21:00 +27°C° 0 mm 3 mps 693 mmHg 23%
    22:00 +26°C° 0 mm 3 mps 694 mmHg 25%
    23:00 +26°C° 0 mm 4 mps 695 mmHg 27%

    27 November, Monday

    Time Temperature Precipitation Wind Pressure Humidity
    00:00 +25°C° 0.3 mm 4 mps 695 mmHg 32%
    01:00 +23°C° 0.3 mm 4 mps 696 mmHg 37%
    02:00 +23°C° 0.3 mm 5 mps 696 mmHg 42%
    03:00 +22°C° 0 mm 5 mps 697 mmHg 38%
    04:00 +21°C° 0 mm 5 mps 698 mmHg 35%
    05:00 +20°C° 0 mm 6 mps 699 mmHg 31%
    06:00 +20°C° 0 mm 7 mps 700 mmHg 34%
    07:00 +18°C° 0 mm 9 mps 702 mmHg 37%
    08:00 +18°C° 0 mm 10 mps 703 mmHg 39%
    09:00 +19°C° 0 mm 10 mps 703 mmHg 35%
    10:00 +22°C° 0 mm 10 mps 704 mmHg 31%
    11:00 +24°C° 0 mm 10 mps 704 mmHg 26%
    12:00 +26°C° 0 mm 10 mps 704 mmHg 25%
    13:00 +27°C° 0 mm 9 mps 703 mmHg 23%
    14:00 +28°C° 0 mm 9 mps 703 mmHg 21%
    15:00 +27°C° 0 mm 9 mps 702 mmHg 22%
    16:00 +27°C° 0 mm 9 mps 702 mmHg 23%
    17:00 +27°C° 0 mm 9 mps 701 mmHg 23%
    18:00 +24°C° 0 mm 9 mps 701 mmHg 26%
    19:00 +23°C° 0 mm 8 mps 702 mmHg 28%
    20:00 +21°C° 0 mm 8 mps 702 mmHg 31%
    21:00 +21°C° 0 mm 7 mps 702 mmHg 32%
    22:00 +20°C° 0 mm 7 mps 702 mmHg 33%
    23:00 +19°C° 0 mm 6 mps 702 mmHg 34%

    28 November, Tuesday

    Time Temperature Precipitation Wind Pressure Humidity
    00:00 +19°C° 0 mm 6 mps 702 mmHg 35%
    01:00 +17°C° 0 mm 5 mps 701 mmHg 36%
    02:00 +17°C° 0 mm 5 mps 701 mmHg 37%
    03:00 +17°C° 0 mm 4 mps 701 mmHg 39%
    04:00 +17°C° 0 mm 4 mps 701 mmHg 41%
    05:00 +17°C° 0 mm 3 mps 701 mmHg 43%
    06:00 +20°C° 0 mm 4 mps 701 mmHg 39%
    07:00 +22°C° 0 mm 4 mps 702 mmHg 35%
    08:00 +26°C° 0 mm 4 mps 702 mmHg 31%
    09:00 +28°C° 0 mm 5 mps 702 mmHg 29%
    10:00 +29°C° 0 mm 6 mps 702 mmHg 28%
    11:00 +32°C° 0 mm 7 mps 701 mmHg 26%
    12:00 +33°C° 0 mm 7 mps 701 mmHg 25%
    13:00 +34°C° 0 mm 7 mps 700 mmHg 24%
    14:00 +34°C° 0 mm 7 mps 699 mmHg 23%
    15:00 +34°C° 0 mm 6 mps 698 mmHg 24%
    16:00 +34°C° 0 mm 6 mps 698 mmHg 24%
    17:00 +33°C° 0 mm 6 mps 697 mmHg 25%
    18:00 +32°C° 0 mm 6 mps 697 mmHg 29%
    19:00 +29°C° 0 mm 5 mps 697 mmHg 32%
    20:00 +27°C° 0 mm 5 mps 697 mmHg 36%
    21:00 +26°C° 0 mm 5 mps 697 mmHg 36%
    22:00 +26°C° 0 mm 6 mps 697 mmHg 37%
    23:00 +26°C° 0 mm 7 mps 697 mmHg 37%

    29 November, Wednesday

    Time Temperature Precipitation Wind Pressure Humidity
    00:00 +24°C° 0 mm 7 mps 697 mmHg 37%
    01:00 +24°C° 0 mm 7 mps 696 mmHg 37%
    02:00 +24°C° 0 mm 7 mps 696 mmHg 37%
    03:00 +23°C° 0 mm 7 mps 696 mmHg 38%
    04:00 +23°C° 0 mm 7 mps 696 mmHg 40%
    05:00 +23°C° 0 mm 7 mps 696 mmHg 41%
    06:00 +24°C° 0 mm 8 mps 696 mmHg 39%
    07:00 +27°C° 0 mm 9 mps 697 mmHg 37%
    08:00 +29°C° 0 mm 10 mps 697 mmHg 35%
    09:00 +31°C° 0 mm 9 mps 697 mmHg 31%
    10:00 +33°C° 0 mm 8 mps 697 mmHg 28%
    11:00 +34°C° 0 mm 7 mps 697 mmHg 25%
    12:00 +35°C° 0 mm 6 mps 696 mmHg 24%
    13:00 +36°C° 0 mm 5 mps 695 mmHg 23%
    14:00 +36°C° 0 mm 4 mps 695 mmHg 21%
    15:00 +36°C° 0.1 mm 4 mps 694 mmHg 22%
    16:00 +36°C° 0.1 mm 5 mps 694 mmHg 23%
    17:00 +36°C° 0.1 mm 5 mps 693 mmHg 24%
    18:00 +33°C° 0.4 mm 5 mps 694 mmHg 30%
    19:00 +30°C° 0.4 mm 4 mps 694 mmHg 37%
    20:00 +27°C° 0.4 mm 4 mps 694 mmHg 44%
    21:00 +26°C° 0.9 mm 4 mps 694 mmHg 50%
    22:00 +25°C° 0.9 mm 5 mps 695 mmHg 57%
    23:00 +22°C° 0.9 mm 5 mps 695 mmHg 64%
    Show more